Location: Arrodets-la-Barthe
(43.0306°N, 0.2829°E)
Time: 00:04:26
(UTC+00:00)

Cosmos 2344 - Pass Details

Date: 05 June 2022
Orbit: 1228 x 3015 km, 63.3° (Epoch: 04 July)

Event Time Altitude Azimuth Distance (km) Brightness Sun altitude
Rises 23:17:35 0° 305° (NW) 4,192 7.0 -23.7°
Reaches altitude 10° 23:21:17 10° 323° (NW) 3,316 6.6 -23.8°
Maximum altitude 23:26:42 19° 8° (N) 2,888 6.2 -24.0°
Drops below altitude 10° 23:32:56 10° 51° (NE) 3,894 6.5 -24.1°
Sets 23:37:51 0° 68° (ENE) 5,203 7.0 -24.2°
